sat.trackr.live / text

‹ back to catalog

STARLINK-3359

NORAD 51148 · 2022-005AW

PAYLOAD ACTIVE UNKNOWN

§ Identity

Operator
Country
US
Launch date
2022-01-19
Launch site
AFETR
Launch vehicle
Mass (kg)
RCS (m²)

Purposes: comms

External: N2YO · Heavens-Above · Gunter

§ Orbital elements

Epoch: 2026-09-19T09:56:20.048352Z

Period
94.91 min
Inclination
53.2135°
Eccentricity
0.0002534
Mean motion
15.17166412 rev/d
Perigee alt
512.7 km
Apogee alt
516.2 km
Semi-major
6,892.5 km
B*
8.5119e-4
RAAN
153.7058°
Arg perigee
94.7802°
Mean anomaly
265.3484°
Rev number
25,792

§ Raw data

STARLINK-33591 51148U 22005AW  26262.41412093  .00016831  00000+0  85119-3 0  99952 51148  53.2135 153.7058 0002534  94.7802 265.3484 15.17166412257924

JSON: /api/v1/satellites/51148 · /tle

For live sub-satellite position, see the globe view (requires WebGL).

§ Visibility from observer

Set your observer location to see the next 7 days of passes ≥ 10°. The values pass through the URL so the page stays shareable.

No JS? Fill the form by hand. The geolocation button needs JavaScript.